#timestamp,LO_Frequency,Hit,StdDev 
1509188415.3,286047004.4,Y
1509188435.1,286046998.5,P
1509188455.9,286046998.7,N
1509188475.7,286046998.4,N
1509188495.5,286046999.4,N
1509188515.4,286046999.1,N
1509188535.2,286046998.9,N
1509188555.1,286047000.8,N
1509188556.0,286047000.8,N
1509188575.8,286047000.8,N
1509188595.6,286047000.4,N
1509188615.5,286047002.7,N
1509188635.3,286047001.1,N
1509188655.2,286046998.6,N
1509188675.9,286046998.5,N
1509188695.7,286046999.4,N
1509188715.6,286046998.4,N
1509188735.4,286047000.5,N
1509188755.3,286046999.8,N
1509188775.1,286047002.5,N
1509188776.0,286047002.5,N
1509188795.8,286046999.8,N
1509188815.7,286047002.2,N
1509188835.5,286047001.8,N
1509188855.3,286047002.5,N
1509188875.2,286046999.8,N
1509188895.0,286047002.6,N
1509188895.9,286047002.6,N
1509188915.8,286047002.0,N
1509188935.6,286047001.9,N
1509188955.4,286047001.3,N
1509188975.3,286047002.9,N
1509188995.1,286047004.2,N
1509189015.8,286047003.9,N
1509189035.7,286047001.6,N
1509189055.5,286047001.5,N
1509189075.4,286047004.3,N
1509189095.2,286047004.7,N
1509189115.0,286047003.0,N
1509189115.9,286047003.0,N
1509189135.8,286047001.4,N
1509189155.0,286047002.1,N
1509189155.9,286047002.1,N
1509189175.8,286047001.9,N
1509189195.6,286047004.3,N
1509189215.5,286047003.9,N
1509189235.3,286047004.0,N
1509189255.1,286047003.7,N
1509189275.9,286047004.4,Y
1509189295.7,286046998.5,P
1509189315.5,286047000.5,N
1509189335.4,286046998.9,N
1509189355.2,286046998.3,N
1509189375.1,286046998.1,N
1509189376.0,286046998.1,N
1509189395.8,286046999.7,N
1509189415.6,286046999.7,N
1509189435.5,286047002.8,N
1509189455.3,286047000.3,N
1509189475.2,286046999.9,N
1509189495.9,286047000.0,N
1509189515.7,286046998.2,N
1509189535.6,286046998.2,N
1509189555.4,286046998.1,N
1509189575.2,286047000.8,N
1509189595.1,286046998.4,N
1509189596.0,286046998.4,N
1509189615.8,286047000.4,N
1509189635.7,286047002.3,N
1509189655.5,286047002.2,N
1509189675.3,286047000.2,N
1509189695.2,286047002.3,N
1509189715.0,286047004.2,N
1509189715.9,286047004.2,N
1509189735.8,286047005.5,N
1509189755.6,286047004.5,N
1509189775.4,286047006.0,N
1509189795.3,286047003.7,N
1509189815.1,286047004.4,N
1509189835.8,286047003.2,N
1509189855.7,286047004.0,N
1509189875.5,286047004.1,N
1509189895.3,286047003.8,N
1509189915.2,286047001.9,N
1509189935.0,286047002.5,N
1509189935.9,286047002.5,N
1509189955.8,286047002.8,N
1509189975.6,286047002.8,N
1509189995.4,286047000.2,N
1509190015.3,286047002.8,N
1509190035.1,286047000.3,N
1509190055.9,286047001.0,N
1509190075.7,286046999.2,N
1509190095.5,286046997.2,N
1509190115.4,286046998.0,N
1509190135.2,286046997.7,N
1509190155.0,286046998.9,N
1509190155.9,286046998.9,N
1509190175.8,286046998.2,N
1509190195.6,286046998.6,N
1509190215.5,286047000.4,N
1509190235.3,286047000.9,N
1509190255.1,286047001.0,N
1509190275.9,286046998.6,N
1509190295.7,286046998.9,N
1509190315.5,286046998.8,N
1509190335.4,286046997.1,N
1509190355.2,286046999.5,N
1509190375.0,286046999.5,N
1509190376.0,286046999.5,N
1509190395.8,286046996.5,N
1509190415.6,286046999.5,N
1509190435.5,286046998.7,N
1509190455.3,286046998.5,N
1509190475.1,286047001.2,N
1509190495.9,286047000.7,N
1509190515.7,286047011.9,Y
1509190535.6,286047000.1,P
1509190555.4,286047002.8,P
1509190575.2,286047002.7,N
1509190595.1,286047001.0,N
1509190596.0,286047001.0,N
1509190615.8,286047000.7,N
1509190635.6,286047000.7,N
1509190655.5,286047000.0,N
1509190675.3,286047000.8,N
1509190695.2,286047000.9,N
1509190715.9,286047002.2,N
1509190735.7,286047002.0,N
1509190755.6,286047002.0,N
1509190775.4,286047001.8,N
1509190795.3,286047000.2,N
1509190815.1,286047000.3,N
1509190816.0,286047000.3,N
1509190835.8,286046999.9,N
1509190855.7,286047001.9,N
1509190875.5,286047003.7,Y
1509190895.4,286047001.6,P
1509190915.2,286047002.6,P
1509190935.0,286047001.5,N
1509190935.9,286047001.5,N
1509190955.8,286047002.2,Y
1509190975.6,286047000.5,P
1509190995.4,286047002.5,P
1509191015.3,286047002.3,N
1509191035.1,286046999.7,N
1509191055.9,286047000.1,N
1509191075.7,286047000.0,N
1509191095.5,286046999.9,N
1509191115.4,286047002.7,N
1509191135.2,286047002.8,N
1509191155.0,286047001.9,N
1509191155.9,286047001.9,N
1509191175.8,286047002.5,N
1509191195.6,286046999.7,N
1509191215.5,286046998.1,N
1509191235.3,286046998.1,N
1509191255.1,286046999.5,N
1509191275.9,286046999.5,N
1509191295.7,286046996.8,N
1509191315.5,286046996.9,N
1509191335.4,286046997.0,N
1509191355.2,286046999.6,N
1509191375.1,286046997.0,N
1509191376.0,286046997.0,N
1509191395.8,286046997.0,N
1509191415.6,286046995.0,N
1509191435.5,286046996.0,N
1509191455.3,286046994.0,N
1509191475.1,286046993.3,N
1509191495.9,286046994.4,N
1509191515.7,286046995.3,N
1509191535.6,286046995.1,N
1509191555.4,286046997.9,N
1509191575.2,286046995.7,N
1509191595.1,286046993.6,N
1509191596.0,286046993.6,N
1509191615.8,286046996.4,N
1509191635.6,286046991.9,N
1509191655.5,286046992.2,N
1509191675.3,286046994.1,N
1509191695.2,286046993.5,N
1509191715.9,286046993.6,N
1509191735.7,286046994.7,N
1509191755.6,286046993.4,Y
1509191775.4,286046995.3,P
1509191795.2,286046997.6,P
1509191815.1,286046996.6,P
1509191816.0,286046996.6,Y
1509191835.8,286047000.3,P
1509191855.7,286047011.9,P
1509191875.5,286046999.3,N
1509191895.3,286046998.2,N
1509191915.2,286046998.5,N
1509191935.0,286047001.0,N
1509191935.9,286047001.0,N
1509191955.8,286046998.6,N
1509191975.6,286047001.1,N
1509191995.4,286046998.9,N
